This is the latest recevied weather packets stored in our database for station/object KM6YFK-13. If no packets are shown the sender has not sent any weather packets the latest 10 day(s).
| Time | Temp. | Humidity | Pressure | Rain* | Wind** | Luminosity | Snow |
|---|---|---|---|---|---|---|---|
| 1777636708 | 21.67° C | 99% | 1011.9 hPa | 0 mm | - | 103 W/m² | - |
| 1777636408 | 21.67° C | 99% | 1011.8 hPa | 0 mm | - | 96 W/m² | - |
| 1777636108 | 21.67° C | 99% | 1011.7 hPa | 0 mm | - | 78 W/m² | - |
| 1777635808 | 21.67° C | 99% | 1011.7 hPa | 0 mm | - | 69 W/m² | - |
| 1777635507 | 21.67° C | 99% | 1011.8 hPa | 0 mm | - | 53 W/m² | - |
| 1777635207 | 21.67° C | 99% | 1011.8 hPa | 0 mm | - | 47 W/m² | - |
| 1777634909 | 21.67° C | 99% | 1011.9 hPa | 0 mm | - | 38 W/m² | - |
| 1777634608 | 21.67° C | 99% | 1011.7 hPa | 0 mm | - | 32 W/m² | - |
| 1777634308 | 21.67° C | 99% | 1011.6 hPa | 0 mm | - | 22 W/m² | - |
| 1777634008 | 21.67° C | 99% | 1011.4 hPa | 0 mm | - | 14 W/m² | - |
| 1777633708 | 21.67° C | 99% | 1011.4 hPa | 0 mm | - | 10 W/m² | - |
| 1777633409 | 21.67° C | 99% | 1011.3 hPa | 0 mm | - | 7 W/m² | - |
| 1777633108 | 21.67° C | 99% | 1011.3 hPa | 0 mm | - | 5 W/m² | - |
| 1777632808 | 21.67° C | 99% | 1011.1 hPa | 0 mm | - | 4 W/m² | - |
| 1777632508 | 21.67° C | 99% | 1011.1 hPa | 0 mm | - | 2 W/m² | - |
| 1777632208 | 21.67° C | 99% | 1011 hPa | 0 mm | - | 1 W/m² | - |
| 1777631909 | 21.67° C | 99% | 1010.9 hPa | 0 mm | - | 0 W/m² | - |
| 1777631607 | 21.67° C | 99% | 1010.8 hPa | 0 mm | - | 0 W/m² | - |
| 1777631308 | 21.67° C | 99% | 1010.8 hPa | 0 mm | - | 0 W/m² | - |
| 1777631008 | 21.67° C | 99% | 1010.6 hPa | 0 mm | - | 0 W/m² | - |
| 1777630708 | 21.67° C | 99% | 1010.5 hPa | 0 mm | - | 0 W/m² | - |
| 1777630408 | 21.67° C | 99% | 1010.6 hPa | 0 mm | - | 0 W/m² | - |
| 1777630108 | 21.67° C | 99% | 1010.7 hPa | 0 mm | - | 0 W/m² | - |
| 1777629808 | 21.67° C | 99% | 1010.7 hPa | 0 mm | - | 0 W/m² | - |
| 1777629507 | 21.67° C | 99% | 1010.6 hPa | 0 mm | - | 0 W/m² | - |
* Rain latest hour (hover to see other rain measurements)
** Current wind speed in m/s (hover to see current wind gust speed)